Weather History for Pittsfield, MA

Change the Weather History Date:

Friday, March 21, 2014

  Actual Average Record
Temperature  
Mean Temperature 28 °F 33 °F  
Max Temperature 33 °F 44 °F 73 °F (2012)
Min Temperature 22 °F 23 °F 3 °F (2007)
Degree Days  
Heating Degree Days 37 32  
Month to date heating degree days 877 733  
Since 1 July heating degree days 6429 6113  
Cooling Degree Days 0 0  
Month to date cooling degree days 0 0  
Year to date cooling degree days 0 0  
Moisture  
Dew Point 20 °F    
Average Humidity 62    
Maximum Humidity 69    
Minimum Humidity 54    
Precipitation  
Precipitation T in 0.12 in 0.62 in (1927)
Month to date precipitation 1.05 2.01  
Year to date precipitation 7.43 7.61  
Sea Level Pressure  
Sea Level Pressure 29.89 in    
Wind  
Wind Speed 13 mph (WNW)    
Max Wind Speed 26 mph    
Max Gust Speed 35 mph    
Visibility 9 miles    
Events Snow    
T = Trace of Precipitation, MM = Missing Value Source: NWS Daily Summary

Daily Weather History Graph

Daily Weather History Graph

Search for Another Location

Airport:

Trip Planner

Search our weather history database for the weather conditions in past years. The results will help you decide how hot, cold, wet, or windy it might be!

Date:

Astronomy

Mar. 21, 2014 Rise Set
Actual Time 6:54 AM EDT 7:06 PM EDT
Civil Twilight 6:26 AM EDT 7:34 PM EDT
Nautical Twilight 5:53 AM EDT 8:07 PM EDT
Astronomical Twilight 5:20 AM EDT 8:41 PM EDT
Moon No Moon Rise 9:38 AM EDT (3/21)
Length of Visible Light 13h 07m
Length of Day
12h 11m
Waning Gibbous, 75% of the Moon is Illuminated
Mar 21
Waning Gibbous
Mar 23
Last Quarter
Mar 30
New
Apr 7
First Quarter
Apr 15
Full

Hourly Weather History & Observations

Time (EDT) Temp. Windchill Dew Point Humidity Pressure Visibility Wind Dir Wind Speed Gust Speed Precip Events Conditions
12:49 AM 30.2 °F 18.9 °F 24.8 °F 80% 29.76 in 2.0 mi WNW 16.1 mph 24.2 mph 0.00 in Snow Light Snow
12:54 AM 30.9 °F 19.4 °F 25.0 °F 79% 29.78 in 2.5 mi WNW 17.3 mph 26.5 mph 0.00 in Snow Light Snow
1:03 AM 30.9 °F 18.4 °F 25.0 °F 79% 29.76 in 4.0 mi West 20.7 mph 29.9 mph 0.00 in Snow Light Snow
1:54 AM 30.9 °F 20.7 °F 23.0 °F 72% 29.78 in 10.0 mi West 13.8 mph 29.9 mph 0.00 in   Overcast
2:54 AM 30.9 °F 18.4 °F 19.9 °F 64% 29.78 in 10.0 mi West 20.7 mph 29.9 mph N/A   Overcast
3:54 AM 30.9 °F 19.8 °F 19.9 °F 64% 29.78 in 10.0 mi West 16.1 mph 32.2 mph N/A   Overcast
4:54 AM 30.0 °F 18.3 °F 21.0 °F 69% 29.79 in 10.0 mi West 17.3 mph 24.2 mph N/A   Overcast
5:54 AM 30.0 °F 17.9 °F 19.9 °F 66% 29.81 in 10.0 mi WNW 18.4 mph 27.6 mph N/A   Overcast
6:38 AM 30.0 °F 18.7 °F 21.0 °F 69% 29.80 in 10.0 mi West 16.1 mph 27.6 mph N/A   Overcast
6:54 AM 30.0 °F 18.3 °F 21.0 °F 69% 29.83 in 10.0 mi West 17.3 mph 26.5 mph N/A   Overcast
7:54 AM 28.9 °F 16.9 °F 19.9 °F 69% 29.84 in 10.0 mi West 17.3 mph 27.6 mph N/A   Overcast
8:54 AM 30.0 °F 18.7 °F 19.9 °F 66% 29.86 in 10.0 mi West 16.1 mph 25.3 mph N/A   Overcast
9:54 AM 30.9 °F 19.8 °F 19.0 °F 61% 29.87 in 10.0 mi West 16.1 mph 27.6 mph N/A   Overcast
10:54 AM 30.9 °F 18.4 °F 18.0 °F 59% 29.89 in 10.0 mi West 20.7 mph 27.6 mph N/A   Overcast
11:54 AM 32.0 °F 20.1 °F 18.0 °F 56% 29.90 in 10.0 mi WNW 19.6 mph 31.1 mph N/A   Overcast
12:54 PM 32.0 °F 20.1 °F 18.0 °F 56% 29.91 in 10.0 mi West 19.6 mph 25.3 mph N/A   Overcast
1:54 PM 32.0 °F 21.2 °F 21.0 °F 64% 29.92 in 10.0 mi WNW 16.1 mph 27.6 mph N/A   Overcast
2:54 PM 33.1 °F 20.9 °F 21.0 °F 61% 29.92 in 10.0 mi WNW 21.9 mph 29.9 mph 0.00 in   Overcast
3:54 PM 32.0 °F 20.8 °F 21.9 °F 66% 29.93 in 10.0 mi WNW 17.3 mph 33.4 mph N/A   Overcast
4:54 PM 32.0 °F 21.6 °F 18.0 °F 56% 29.95 in 10.0 mi WNW 15.0 mph 24.2 mph N/A   Clear
5:54 PM 30.9 °F 24.3 °F 18.0 °F 59% 29.98 in 10.0 mi Variable 6.9 mph 28.8 mph N/A   Mostly Cloudy
6:54 PM 30.0 °F 21.1 °F 17.1 °F 59% 30.02 in 10.0 mi NW 10.4 mph - N/A   Partly Cloudy
7:54 PM 28.0 °F - 17.1 °F 63% 30.03 in 10.0 mi Calm Calm - N/A   Clear
8:54 PM 28.0 °F 24.2 °F 17.1 °F 63% 30.03 in 10.0 mi Variable 3.5 mph - N/A   Clear
9:54 PM 27.0 °F 23.0 °F 17.1 °F 66% 30.04 in 10.0 mi SW 3.5 mph - N/A   Clear
10:54 PM 27.0 °F 19.5 °F 17.1 °F 66% 30.02 in 10.0 mi West 6.9 mph - N/A   Clear
11:54 PM 27.0 °F 20.5 °F 17.1 °F 66% 30.01 in 10.0 mi NW 5.8 mph - N/A   Clear